Stations météo

réclame
Mon MeteoGroup
Menorca/Mahon, Espagne (8314): Température de l'air & dewpoint: 15.01.2018 14:00:00 - 21.01.2018 14:00:00 (CET)Menorca/Mahon, Espagne (8314): Vitesse du vent: 15.01.2018 14:00:00 - 21.01.2018 14:00:00 (CET)Menorca/Mahon, Espagne (8314): Direction du vent: 15.01.2018 14:00:00 - 21.01.2018 14:00:00 (CET)Menorca/Mahon, Espagne (8314): reduced air pressure: 15.01.2018 14:00:00 - 21.01.2018 14:00:00 (CET)Menorca/Mahon, Espagne (8314): visibility: 15.01.2018 14:00:00 - 21.01.2018 14:00:00 (CET)
Date & Time tt [°C] td [°C] ff [km/h] ff [knt] dd ppp [hPa] vv [km]
21.01.2018 14:00:00 - - - - - - -
21.01.2018 13:00:00 19,6 11,7 13 7 WNW 1019,6 25
21.01.2018 12:00:00 19,4 12,1 9 5 NW 1019,9 -
21.01.2018 11:00:00 18,0 11,6 13 7 NW 1019,5 -
21.01.2018 10:00:00 16,6 11,7 15 8 WNW 1019,0 25
21.01.2018 09:00:00 14,1 11,6 9 5 W 1018,5 -
21.01.2018 08:00:00 12,9 10,6 8 4 WNW 1018,1 22
21.01.2018 07:00:00 14,1 10,9 16 9 NNW 1017,3 20
21.01.2018 06:00:00 14,5 10,9 22 12 WNW 1016,3 -
21.01.2018 05:00:00 14,9 10,9 29 16 WNW 1016,2 -
21.01.2018 04:00:00 15,0 10,6 28 15 W 1016,3 -
21.01.2018 03:00:00 14,4 10,5 22 12 W 1016,8 -
21.01.2018 02:00:00 13,8 11,3 15 8 W 1017,4 -
21.01.2018 01:00:00 13,7 11,4 13 7 W 1017,8 -
21.01.2018 00:00:00 13,6 11,8 16 9 W 1018,6 -
20.01.2018 23:00:00 13,6 11,3 16 9 WSW 1018,7 -
20.01.2018 22:00:00 13,4 10,7 18 10 WSW 1019,1 20
20.01.2018 21:00:00 13,0 9,4 21 11 WSW 1019,3 -
20.01.2018 20:00:00 13,1 9,7 22 12 WSW 1019,6 -
20.01.2018 19:00:00 12,5 9,7 15 8 WSW 1019,5 25
20.01.2018 18:00:00 12,9 10,7 16 9 SW 1019,6 -
20.01.2018 17:00:00 13,4 10,4 18 10 WSW 1019,8 -
20.01.2018 16:00:00 14,8 10,2 22 12 SW 1019,4 25
20.01.2018 15:00:00 13,6 9,5 16 9 SW 1020,0 -
20.01.2018 14:00:00 14,7 9,3 18 10 SW 1020,8 25
20.01.2018 13:00:00 14,7 9,3 13 7 SW 1021,5 25
20.01.2018 12:00:00 13,6 9,6 0 0 N 1022,7 -
20.01.2018 11:00:00 13,7 9,3 13 7 NNE 1022,8 -
20.01.2018 10:00:00 13,1 10,0 13 7 NNE 1022,8 20
20.01.2018 09:00:00 10,8 9,3 13 7 NNE 1022,4 -
20.01.2018 08:00:00 10,5 9,1 16 9 NNE 1022,5 20
20.01.2018 07:00:00 10,1 9,0 16 9 NNE 1021,8 20
20.01.2018 06:00:00 10,3 9,5 15 8 NNE 1021,8 -
20.01.2018 05:00:00 10,1 9,5 9 5 NE 1021,5 -
20.01.2018 04:00:00 10,1 9,5 13 7 NE 1021,6 -
20.01.2018 03:00:00 10,1 9,5 15 8 NE 1021,9 -
20.01.2018 02:00:00 10,3 9,4 18 10 N 1021,7 -
20.01.2018 01:00:00 7,9 6,7 4 2 NW 1021,3 -
20.01.2018 00:00:00 10,0 8,9 4 2 ENE 1021,2 -
19.01.2018 23:00:00 9,0 7,4 16 9 NNE 1021,1 -
19.01.2018 22:00:00 9,3 7,7 11 6 N 1020,9 25
19.01.2018 21:00:00 9,1 7,5 13 7 N 1020,4 -
19.01.2018 20:00:00 9,0 7,4 11 6 N 1020,1 -
19.01.2018 19:00:00 10,0 7,9 8 4 N 1019,5 20
19.01.2018 18:00:00 12,1 9,1 8 4 NNW 1019,3 -
19.01.2018 17:00:00 13,5 9,7 5 3 NW 1018,8 -
19.01.2018 16:00:00 14,0 9,8 11 6 WNW 1018,2 20
19.01.2018 15:00:00 14,8 10,0 8 4 W 1017,7 -
19.01.2018 14:00:00 15,8 10,9 11 6 W 1017,6 20
19.01.2018 13:00:00 15,8 11,0 11 6 WNW 1018,3 20
19.01.2018 12:00:00 14,8 10,8 11 6 WNW 1019,1 -
19.01.2018 11:00:00 12,0 10,9 4 2 NW 1019,6 -
19.01.2018 10:00:00 10,0 9,2 4 2 WNW 1019,3 20
19.01.2018 09:00:00 6,8 5,9 5 3 WNW 1019,0 -
19.01.2018 08:00:00 6,5 5,4 0 0 N 1018,7 20
19.01.2018 07:00:00 7,1 6,0 4 2 WNW 1018,8 20
19.01.2018 06:00:00 7,1 5,9 8 4 WNW 1019,0 -
19.01.2018 05:00:00 7,2 5,7 4 2 WNW 1019,1 -
19.01.2018 04:00:00 8,8 7,4 8 4 NNW 1019,4 -
19.01.2018 03:00:00 8,9 7,3 5 3 NW 1019,9 -
19.01.2018 02:00:00 8,2 6,5 4 2 NW 1020,4 -
19.01.2018 01:00:00 9,0 6,6 0 0 N 1020,9 -
19.01.2018 00:00:00 10,4 6,5 4 2 WNW 1021,5 -
18.01.2018 23:00:00 12,5 8,1 8 4 WSW 1021,8 -
18.01.2018 22:00:00 12,8 9,4 13 7 SW 1022,0 15
18.01.2018 21:00:00 12,5 9,3 9 5 SW 1022,0 -
18.01.2018 20:00:00 12,6 9,4 9 5 SW 1022,5 -
18.01.2018 19:00:00 12,4 9,2 8 4 SW 1022,3 14
18.01.2018 18:00:00 12,1 8,8 8 4 SSW 1022,3 -
18.01.2018 17:00:00 14,1 9,1 11 6 SW 1022,1 -
18.01.2018 16:00:00 15,2 9,4 13 7 SW 1022,6 18
18.01.2018 15:00:00 15,3 9,5 16 9 SW 1023,1 -
18.01.2018 14:00:00 15,0 9,6 16 9 SW 1024,2 18
18.01.2018 13:00:00 15,6 9,4 16 9 SW 1025,2 18
18.01.2018 12:00:00 14,8 9,6 18 10 SSW 1026,1 -
18.01.2018 11:00:00 13,3 9,5 13 7 S 1026,8 -
18.01.2018 10:00:00 12,8 9,4 9 5 S 1026,6 20
18.01.2018 09:00:00 10,7 9,0 8 4 S 1026,2 -
18.01.2018 08:00:00 7,4 6,2 8 4 SE 1026,2 15
18.01.2018 07:00:00 6,3 5,0 4 2 ESE 1026,0 15
18.01.2018 06:00:00 7,3 5,8 0 0 N 1025,7 -
18.01.2018 05:00:00 8,1 6,4 8 4 NE 1025,8 -
18.01.2018 04:00:00 8,9 7,5 13 7 NE 1026,1 -
18.01.2018 03:00:00 8,8 6,8 13 7 NE 1026,4 -
18.01.2018 02:00:00 10,2 7,3 15 8 NE 1026,3 -
18.01.2018 01:00:00 10,9 7,4 16 9 NE 1026,7 -
18.01.2018 00:00:00 11,5 7,4 18 10 NE 1026,7 -
17.01.2018 23:00:00 11,8 7,7 18 10 NE 1026,8 -
17.01.2018 22:00:00 11,8 7,9 18 10 NNE 1026,4 18
17.01.2018 21:00:00 11,9 8,1 18 10 NNE 1025,6 -
17.01.2018 20:00:00 12,0 7,9 22 12 NNE 1025,0 -
17.01.2018 19:00:00 12,1 7,6 21 11 NE 1024,2 16
17.01.2018 18:00:00 12,1 8,0 24 13 NE 1023,6 -
17.01.2018 17:00:00 12,4 8,4 24 13 NE 1023,0 -
17.01.2018 16:00:00 12,5 8,1 24 13 NE 1022,2 13
17.01.2018 15:00:00 13,5 8,8 24 13 NE 1021,3 -
17.01.2018 14:00:00 14,4 9,4 22 12 NE 1021,0 12
17.01.2018 13:00:00 13,3 9,2 26 14 NE 1021,3 6
17.01.2018 12:00:00 14,5 10,4 24 13 N 1020,8 -
17.01.2018 11:00:00 16,6 9,3 26 14 NW 1019,9 -
17.01.2018 10:00:00 16,7 10,5 21 11 WNW 1019,0 20
17.01.2018 09:00:00 15,5 9,6 22 12 NW 1018,3 -
17.01.2018 08:00:00 14,2 9,8 13 7 W 1017,6 27
17.01.2018 07:00:00 15,1 9,7 22 12 WNW 1016,9 27
17.01.2018 06:00:00 15,2 9,5 22 12 W 1016,0 -
17.01.2018 05:00:00 15,1 10,7 24 13 W 1016,0 -
17.01.2018 04:00:00 15,7 9,6 34 18 W 1016,3 -
17.01.2018 03:00:00 14,0 11,2 18 10 W 1017,2 -
17.01.2018 02:00:00 13,0 11,9 15 8 WSW 1017,7 -
17.01.2018 01:00:00 13,2 11,8 15 8 WSW 1018,3 -
17.01.2018 00:00:00 13,5 11,5 16 9 WSW 1019,0 -
16.01.2018 23:00:00 13,5 11,0 18 10 W 1019,6 -
16.01.2018 22:00:00 13,4 10,6 15 8 W 1020,1 25
16.01.2018 21:00:00 13,3 10,3 16 9 WSW 1020,1 -
16.01.2018 20:00:00 13,2 9,6 18 10 WSW 1020,4 -
16.01.2018 19:00:00 13,4 10,6 13 7 WSW 1020,8 25
16.01.2018 18:00:00 13,6 10,2 18 10 WSW 1020,8 -
16.01.2018 17:00:00 15,1 10,1 24 13 WSW 1020,5 -
16.01.2018 16:00:00 16,1 10,6 24 13 WSW 1020,6 25
16.01.2018 15:00:00 16,3 10,2 24 13 WSW 1020,8 -
16.01.2018 14:00:00 16,3 9,5 24 13 W 1021,6 25
16.01.2018 13:00:00 16,1 9,6 28 15 WSW 1022,6 25
16.01.2018 12:00:00 15,8 8,8 24 13 WSW 1023,6 -
16.01.2018 11:00:00 15,2 7,7 24 13 W 1023,7 -
16.01.2018 10:00:00 14,4 7,9 28 15 W 1023,6 25
16.01.2018 09:00:00 13,3 8,0 28 15 WSW 1023,2 -
16.01.2018 08:00:00 12,6 9,0 31 17 WSW 1022,8 25
16.01.2018 07:00:00 12,4 9,2 34 18 WSW 1022,4 25
16.01.2018 06:00:00 12,3 8,9 34 18 WSW 1022,5 -
16.01.2018 05:00:00 12,1 8,8 34 18 WSW 1023,1 -
16.01.2018 04:00:00 11,7 8,2 28 15 W 1024,1 -
16.01.2018 03:00:00 11,4 7,7 26 14 W 1024,7 -
16.01.2018 02:00:00 10,9 7,7 18 10 W 1025,0 -
16.01.2018 01:00:00 10,4 6,7 18 10 WSW 1025,2 -
16.01.2018 00:00:00 11,1 5,8 18 10 W 1026,0 -
15.01.2018 23:00:00 11,4 5,9 22 12 WSW 1025,7 -
15.01.2018 22:00:00 11,3 5,8 21 11 W 1025,5 15
15.01.2018 21:00:00 11,0 7,1 18 10 SW 1025,2 -
15.01.2018 20:00:00 9,3 6,9 9 5 WSW 1024,9 -
15.01.2018 19:00:00 7,6 4,9 5 3 W 1024,9 15
15.01.2018 18:00:00 10,4 6,5 5 3 WNW 1024,8 -
15.01.2018 17:00:00 13,4 7,4 11 6 W 1024,2 -
15.01.2018 16:00:00 14,4 7,9 13 7 W 1023,7 25
15.01.2018 15:00:00 15,7 8,9 9 5 W 1023,5 -
15.01.2018 14:00:00 13,1 8,1 9 5 NNE 1023,9 25

tt = Température de l'air
td = dewpoint
ff = Vitesse du vent
dd = Direction du vent
ppp = reduced air pressure
vv = visibility

stations d'obs. à proximité